GFSGL_925_rhum_090.txt.gz
RH
100 100 98 98 92 86 85 82 76 76 77 77 73 73 74 78 68 67 71 70 72 71 69 72 69 67 66 70 74 75 77 83 87 75 76 69 64 68 67 69 72 75 77
94 99 95 93 96 94 89 85 81 74 73 72 71 73 76 78 78 77 76 78 75 78 76 74 70 69 74 70 71 74 83 81 87 84 80 80 76 72 72 78 78 79 84
90 95 95 93 94 95 95 90 85 81 77 74 73 70 73 77 76 75 77 75 77 75 76 76 74 75 74 74 76 81 81 79 88 88 78 77 83 80 84 85 83 87 87
91 88 93 89 93 94 94 90 91 89 85 81 77 76 73 73 77 76 75 75 79 78 77 78 79 80 79 80 82 80 80 83 83 93 91 91 92 90 95 95 98 92 94
92 90 88 88 84 88 96 92 93 96 93 90 86 81 80 80 77 77 79 79 80 81 81 78 77 74 74 78 79 79 88 92 94 94 90 90 96 100 98 95 100 99 94
84 91 89 90 90 86 85 93 94 94 98 94 90 87 84 84 80 74 74 77 77 77 77 79 79 77 74 73 69 67 72 91 94 91 87 90 88 95 98 99 99 100 98
77 79 86 93 94 91 91 90 96 98 96 98 97 93 90 86 83 79 76 74 73 73 74 75 75 80 80 78 75 76 77 84 86 84 88 92 95 94 99 100 100 100 99
95 95 92 86 90 96 94 95 93 92 95 95 96 95 94 90 87 82 79 73 73 71 72 75 78 78 80 82 85 91 88 88 94 98 100 99 100 99 99 100 100 100 100
94 97 100 100 98 94 92 95 94 93 94 95 94 96 95 93 91 88 84 82 81 79 79 83 86 88 84 85 88 92 99 100 100 100 100 100 98 100 100 100 100 100 98
95 97 100 100 100 99 100 100 93 91 94 97 96 94 92 95 96 95 92 96 95 93 90 89 87 86 87 87 87 98 100 100 99 99 100 99 100 100 100 100 100 98 97
96 98 98 100 100 100 100 99 99 100 96 94 95 99 100 100 100 100 97 92 98 98 98 100 100 100 100 100 100 100 100 99 99 99 100 99 97 96 96 96 98 97 97
97 97 99 100 99 100 100 100 98 98 99 100 100 100 100 100 99 100 98 100 99 100 100 100 99 99 99 100 99 98 99 98 96 98 98 99 100 98 97 96 96 95 96
98 99 100 99 100 100 100 100 99 96 98 100 99 100 100 99 100 100 98 97 98 98 99 100 100 98 96 97 98 100 99 96 96 97 98 98 96 96 96 96 97 97 97
100 100 100 100 100 100 100 100 100 100 100 100 100 99 100 94 95 100 100 99 96 92 96 97 98 99 100 99 97 95 94 95 96 96 96 96 96 95 95 95 94 94 93
100 100 100 100 99 100 100 100 100 100 100 100 100 100 98 100 99 95 97 99 100 96 94 94 96 98 97 97 98 96 96 96 96 96 95 95 95 96 95 86 80 79 87
100 100 100 100 100 97 97 99 100 100 98 96 98 100 100 99 98 95 97 96 98 97 97 97 97 97 97 97 97 97 96 95 95 95 95 95 96 95 95 89 81 88 90
100 100 100 100 98 96 95 93 94 99 100 100 98 98 97 98 100 100 99 95 96 95 96 97 97 97 97 97 98 96 97 96 95 94 91 88 83 88 94 94 78 87 86
98 99 100 100 100 99 100 100 98 96 98 100 100 99 97 98 99 100 97 93 96 96 97 97 97 97 97 98 97 96 97 93 89 82 77 74 74 82 91 95 94 88 91
96 97 97 99 100 98 98 99 100 100 100 100 97 93 98 99 97 99 96 95 97 97 97 98 95 95 95 94 89 87 84 84 82 82 80 76 73 75 82 85 84 85 88
99 95 93 95 96 98 97 97 98 99 100 100 100 100 97 88 93 96 95 95 96 96 96 96 96 92 91 89 87 84 85 87 86 84 80 77 76 77 88 89 90 85 88
98 98 99 96 96 96 97 97 98 98 100 100 100 98 95 95 100 97 96 96 96 95 93 90 88 86 85 83 81 81 84 88 86 82 79 80 78 82 88 85 81 78 80
96 96 96 97 96 96 97 95 96 96 97 98 97 96 89 91 96 94 96 96 96 92 87 82 84 87 88 89 90 85 87 90 88 86 80 78 78 84 86 82 78 77 88
94 95 96 97 96 95 96 96 96 97 97 95 94 93 90 93 94 92 91 90 90 85 82 78 78 88 91 92 91 90 86 89 87 78 68 64 76 85 87 83 89 94 90
94 95 97 97 97 98 100 100 100 100 99 96 95 93 92 93 97 98 96 95 96 94 90 88 85 80 78 78 80 82 82 80 74 63 56 57 69 88 88 92 92 92 89
89 91 91 94 96 98 97 97 96 96 96 96 97 96 97 94 89 90 99 98 98 98 99 96 91 85 85 88 89 88 86 80 79 77 77 78 87 91 94 90 90 92 90
86 86 89 90 91 92 93 96 98 95 97 99 99 96 94 94 91 84 96 98 99 100 99 97 97 97 95 97 94 90 91 95 96 93 88 88 88 88 89 91 92 93 95

GFSGL_925_rhum_093.txt.gz
RH
96 95 99 93 90 84 86 87 84 86 88 87 88 92 87 81 77 82 87 86 81 66 57 54 53 54 64 68 67 68 77 78 90 80 74 67 68 68 67 66 66 67 65
97 94 98 97 92 91 90 85 84 84 85 86 83 82 77 75 73 74 75 75 69 66 58 61 59 60 65 72 77 75 74 77 88 88 80 77 74 64 63 66 63 62 63
100 98 98 100 96 90 87 86 85 83 82 82 83 82 81 79 78 75 74 74 77 76 74 72 72 76 77 78 82 85 83 78 93 94 82 77 79 75 75 76 75 75 76
95 100 98 100 99 92 80 80 84 87 84 80 80 81 81 83 80 77 81 85 84 79 75 74 76 76 77 84 85 84 85 92 94 97 93 87 85 83 86 95 98 90 91
90 93 100 100 100 98 94 89 82 84 88 87 82 81 80 79 78 81 82 82 85 85 81 81 82 80 75 76 81 84 90 94 90 91 92 90 87 85 92 86 97 98 97
91 96 96 94 96 95 99 96 95 92 88 86 89 88 84 82 79 76 78 82 81 82 82 82 80 78 76 77 79 74 76 91 91 87 84 84 80 80 84 94 87 93 96
92 94 98 95 92 92 92 94 100 100 99 97 96 94 92 89 85 80 77 77 80 83 82 80 81 84 82 81 79 80 80 78 75 72 77 78 80 80 82 88 95 95 97
95 96 99 98 99 100 99 97 96 98 100 100 100 100 99 96 92 88 84 82 83 82 82 82 82 80 81 82 85 87 80 74 74 74 85 88 86 89 91 96 98 99 100
94 95 98 100 100 99 100 100 100 99 99 100 99 100 100 100 98 94 91 89 90 88 84 83 82 83 81 80 82 87 89 92 90 96 100 100 100 100 100 100 100 100 100
93 94 96 98 99 100 100 100 100 100 100 100 99 100 100 100 100 100 100 100 98 96 91 88 84 82 81 81 82 89 93 100 100 100 100 100 100 100 100 100 100 100 96
95 96 96 98 96 100 100 100 100 100 100 100 100 100 100 100 100 100 100 100 100 100 100 99 100 100 99 94 94 100 100 100 100 100 100 100 100 99 99 99 99 97 96
95 98 100 100 100 100 99 98 98 99 100 100 99 99 99 98 96 93 88 91 97 100 99 98 99 96 95 96 99 98 100 99 99 97 98 100 99 97 97 96 96 95 96
98 100 100 100 100 100 100 100 100 99 100 100 100 100 100 100 97 99 100 100 100 98 94 94 98 98 100 100 99 97 97 94 97 98 98 99 97 96 97 96 96 96 95
100 100 100 100 100 100 100 100 100 100 100 100 100 100 100 100 99 99 99 100 99 98 98 99 97 94 94 98 96 95 96 96 95 96 96 96 96 95 95 95 95 96 94
100 100 100 100 100 100 100 100 100 100 100 100 100 100 100 100 100 100 98 98 99 98 95 94 96 96 97 97 96 97 96 96 96 97 96 96 96 96 96 95 95 95 95
100 100 99 100 100 99 97 100 100 100 100 99 99 100 100 99 100 100 100 100 98 97 94 96 97 98 97 97 97 97 96 96 96 96 95 95 96 96 96 92 87 91 87
100 100 100 100 100 100 100 98 96 100 100 100 98 99 100 100 100 100 100 100 99 82 96 97 97 97 98 98 98 98 98 96 95 94 91 93 93 92 90 87 86 85 82
98 97 99 98 99 99 100 100 100 100 100 100 99 97 98 100 100 100 98 82 92 95 98 97 96 96 97 97 96 96 95 88 86 83 81 81 82 84 90 92 93 94 86
98 99 98 97 96 96 96 98 98 99 100 100 96 92 97 100 100 99 92 95 99 98 97 96 96 95 95 94 90 87 83 81 76 71 71 70 72 75 85 85 83 81 79
99 97 96 96 96 96 96 98 98 98 98 98 97 96 96 87 90 95 94 96 97 97 96 95 94 90 87 85 83 81 80 78 77 77 78 78 79 82 86 82 77 76 84
98 96 94 94 96 97 98 99 98 98 99 98 96 96 96 94 96 97 97 92 89 89 88 86 84 82 81 79 78 78 81 82 80 78 78 82 81 85 84 78 74 76 80
96 97 96 98 96 95 96 95 96 97 97 97 96 94 88 87 92 95 94 90 87 84 80 76 78 83 86 85 84 82 85 86 83 79 73 77 83 86 82 76 77 83 82
94 95 96 99 98 96 95 96 95 95 95 94 92 88 85 88 89 90 90 87 83 79 76 74 75 81 89 91 89 85 78 78 75 68 64 60 70 75 80 80 87 83 80
92 93 95 95 92 92 92 93 92 89 88 86 84 86 90 94 96 98 97 98 96 94 88 84 80 82 88 90 90 87 83 80 73 63 58 58 65 78 82 88 87 83 88
86 89 90 92 92 93 92 93 93 92 90 90 91 88 86 85 91 98 98 97 96 94 95 94 94 95 96 95 89 82 85 88 83 74 72 75 79 83 87 87 86 90 90
86 87 89 89 90 90 91 93 94 92 93 94 94 93 91 88 86 90 97 97 96 95 98 99 98 95 92 88 91 91 91 91 85 77 79 82 84 87 89 92 95 96 96

GFSGL_925_rhum_096.txt.gz
RH
99 100 99 94 88 85 90 93 96 97 95 95 100 100 99 96 95 100 98 97 94 86 84 79 72 72 64 60 60 62 63 63 80 67 67 67 73 70 63 65 62 63 63
94 97 97 95 90 86 86 89 92 93 96 93 94 97 94 93 95 95 90 90 88 87 84 83 75 65 64 63 60 64 71 73 81 81 77 77 73 61 65 69 67 62 65
97 93 94 97 99 92 88 88 89 90 89 91 90 91 95 95 91 87 86 87 92 88 85 85 83 75 70 73 73 79 82 84 89 90 82 79 74 72 75 76 74 75 74
100 96 96 94 98 98 90 87 84 84 85 86 88 89 88 90 92 88 82 83 86 84 82 86 86 79 76 74 78 77 83 90 93 99 95 89 86 86 86 84 88 83 80
100 100 96 95 96 99 96 89 83 82 82 82 84 84 83 85 86 88 87 87 86 84 81 76 73 66 61 64 77 85 92 94 93 92 91 89 89 92 95 85 95 89 88
97 99 99 99 98 98 95 94 91 88 87 86 87 86 85 83 82 81 86 93 92 90 90 85 82 80 76 75 72 72 75 86 87 85 82 84 83 84 86 89 92 95 92
99 100 100 100 100 100 100 99 98 95 92 91 90 90 90 88 86 84 82 84 87 86 84 84 85 82 79 80 78 79 81 79 76 73 82 83 82 82 83 84 88 88 87
94 96 99 99 100 100 100 100 100 100 100 99 97 93 93 91 87 87 89 86 85 85 84 84 85 82 83 82 82 89 85 79 80 84 89 86 84 86 84 85 87 92 99
91 93 95 97 99 100 99 99 100 99 100 100 100 100 100 100 100 100 99 98 99 96 92 89 89 90 88 87 88 91 93 96 97 98 100 100 100 99 99 99 99 99 100
93 94 98 97 98 100 100 99 100 100 100 100 100 100 100 100 100 100 100 100 100 100 100 100 100 100 96 93 95 98 95 95 100 100 100 99 99 100 100 100 100 98 100
97 99 99 100 100 100 100 100 100 100 99 99 100 100 99 99 99 93 89 93 99 100 99 100 99 99 98 99 100 100 99 99 98 97 97 97 96 96 96 98 99 97 97
99 100 100 100 100 100 100 100 100 99 99 100 99 99 99 96 98 99 99 100 100 100 100 100 98 99 99 100 99 99 99 100 97 97 97 98 97 98 97 96 95 95 96
98 100 100 100 100 100 100 100 100 99 100 100 100 100 100 100 100 100 100 100 100 99 100 100 100 98 99 98 96 98 98 98 99 97 97 96 96 97 96 96 96 96 95
99 100 100 100 100 100 100 100 100 100 100 100 99 100 100 100 99 99 100 100 98 95 94 95 97 96 94 95 92 94 95 95 97 96 97 96 96 95 95 96 95 95 95
99 100 100 100 100 100 100 100 100 100 100 100 100 100 99 99 100 100 98 98 97 94 89 88 92 94 98 100 100 98 96 94 94 95 95 95 95 95 95 94 93 92 94
99 100 100 100 100 99 98 100 100 100 100 100 99 98 100 99 100 100 100 100 94 85 86 98 100 100 100 100 100 100 95 94 96 95 95 95 95 95 97 96 92 90 82
100 100 97 98 99 98 97 97 97 99 100 100 99 99 99 100 100 100 100 97 89 80 99 100 100 100 100 100 100 100 100 96 87 82 87 94 97 97 94 94 95 90 84
95 95 95 96 96 95 96 97 94 97 100 100 100 100 100 100 100 100 93 75 88 94 98 100 100 100 100 100 98 94 86 81 79 80 80 79 82 96 96 93 93 94 80
96 97 96 96 95 95 94 94 94 96 97 98 98 98 100 100 91 89 82 86 96 97 96 95 96 95 93 89 83 77 73 74 71 68 71 71 69 68 76 74 77 68 84
97 96 95 95 95 95 95 95 96 97 100 100 100 98 95 86 91 95 94 92 93 94 93 89 89 86 84 81 77 73 70 67 66 68 71 71 70 69 72 69 69 78 96
96 96 96 95 95 96 96 98 98 97 99 100 100 100 90 89 96 91 86 86 84 82 81 80 79 77 77 75 72 70 70 71 69 69 70 78 79 76 75 74 77 80 78
95 95 94 95 95 95 96 96 95 96 96 98 96 90 85 86 90 88 86 83 82 80 79 76 79 82 83 82 82 77 75 72 67 64 70 77 79 79 76 80 81 76 74
95 95 95 95 96 96 95 94 90 86 86 86 84 82 80 86 87 86 85 82 77 73 71 70 72 80 84 82 77 75 70 68 64 60 59 63 74 79 82 83 80 78 83
92 92 93 92 88 88 88 89 87 83 82 84 85 89 92 93 94 96 95 91 87 82 78 78 82 87 88 84 79 75 75 74 72 67 68 76 81 84 86 82 80 83 85
87 88 88 89 88 89 88 89 89 88 87 85 86 86 91 93 96 98 98 96 94 92 93 92 90 88 87 87 87 86 91 93 91 84 82 83 82 82 81 82 85 86 88
85 87 88 88 89 90 90 90 92 91 91 93 92 91 88 85 89 94 94 91 93 97 98 98 97 95 94 96 98 98 93 92 89 85 84 87 88 88 88 90 91 92 93

GFSGL_925_rhum_099.txt.gz
RH
100 100 100 98 96 89 95 100 100 88 88 97 99 98 95 100 100 100 100 99 94 87 84 98 92 87 76 59 66 71 66 70 69 54 59 59 55 56 55 61 58 62 65
100 100 100 100 99 93 98 93 98 99 92 91 100 100 100 100 99 100 100 98 93 87 88 96 85 77 73 73 75 76 79 80 70 62 61 69 72 67 60 63 60 64 65
100 100 100 100 100 98 96 90 96 99 99 99 99 100 99 99 98 99 99 100 97 96 92 85 85 85 90 88 86 87 87 85 78 71 68 64 77 81 78 75 75 73 71
97 96 98 99 98 99 99 96 93 97 98 98 97 97 100 100 98 97 95 95 98 97 96 96 93 92 92 90 93 91 85 86 87 86 80 76 73 74 84 82 80 84 88
100 100 99 98 92 96 100 99 94 93 95 94 96 96 96 95 96 99 97 95 96 95 94 92 91 92 91 84 90 90 86 88 85 82 81 80 79 80 83 82 84 80 78
100 100 100 96 94 94 96 100 99 96 95 95 94 94 95 93 88 82 90 96 96 92 88 88 91 88 80 76 74 79 77 83 85 79 75 78 77 76 73 76 80 82 86
99 100 100 100 100 100 100 98 96 98 100 99 97 94 93 93 85 81 81 88 90 90 91 90 89 90 87 87 79 72 74 75 76 72 74 76 75 73 73 74 79 83 84
97 96 97 99 100 100 100 100 100 100 100 98 96 94 95 99 99 95 88 89 91 93 94 93 93 89 87 90 91 90 88 82 78 85 94 90 90 91 86 88 88 89 90
95 96 96 98 99 100 99 99 99 99 100 99 100 100 100 100 99 98 100 100 100 99 98 99 100 100 100 98 98 98 94 96 99 99 100 100 100 100 100 100 100 100 98
93 97 99 99 100 100 100 99 100 100 100 100 100 100 100 100 96 94 96 100 100 100 100 100 100 100 100 100 100 100 100 100 100 100 100 98 97 98 98 100 100 100 99
98 100 100 100 100 100 100 100 100 100 100 100 99 100 99 99 99 96 97 100 100 100 100 100 99 100 99 98 99 100 100 100 100 98 98 96 96 95 95 96 97 96 97
97 99 100 100 100 100 100 100 100 100 100 100 100 100 100 100 99 100 100 100 100 98 100 100 99 99 99 100 99 99 99 98 97 95 97 99 99 97 96 93 93 94 95
97 98 100 100 100 100 100 100 100 100 100 100 99 100 100 100 100 100 99 98 99 99 100 100 100 100 100 99 97 94 92 91 91 96 99 97 96 98 100 100 96 95 93
97 98 96 98 98 98 100 100 100 100 99 98 97 99 100 100 100 100 100 100 100 100 99 99 99 100 100 100 100 98 99 97 98 100 100 100 100 100 100 100 100 100 94
96 98 96 96 94 98 100 100 100 100 100 99 100 100 97 98 100 100 100 100 100 98 99 100 99 98 100 100 100 100 100 100 100 100 100 100 97 92 90 87 78 73 70
94 97 100 99 97 93 93 99 100 100 100 100 99 98 99 99 100 100 100 99 86 88 95 97 99 100 99 100 99 100 100 100 100 97 90 81 76 75 76 78 77 72 69
100 100 98 96 95 94 95 94 96 100 100 100 100 100 100 100 100 100 99 77 78 83 95 98 100 99 98 97 97 95 93 93 92 85 84 83 78 77 73 76 76 71 65
98 97 100 100 100 100 100 100 100 99 100 100 100 100 100 100 100 100 92 77 92 96 95 97 100 99 92 87 84 83 85 86 85 81 87 90 88 79 74 69 73 72 61
100 100 100 100 100 100 100 100 100 100 100 100 100 100 100 100 99 93 95 99 98 98 97 98 98 92 90 89 94 93 93 92 93 94 91 90 92 78 76 75 74 82 69
100 100 100 100 100 100 100 100 100 100 100 100 100 100 100 100 100 100 100 100 100 98 96 93 94 97 97 96 99 98 96 93 90 90 97 97 95 87 84 83 83 77 73
100 100 98 100 100 100 100 100 100 100 99 100 100 100 96 100 100 100 100 100 100 100 100 100 100 100 100 99 96 91 84 92 94 96 96 95 98 91 90 90 88 82 78
100 100 100 100 100 100 100 100 100 99 99 98 100 95 95 100 100 98 100 100 100 100 100 100 100 100 97 97 97 92 72 74 75 78 91 87 96 96 95 92 91 90 85
100 100 100 100 100 100 100 100 100 98 98 98 97 99 100 100 100 100 100 100 100 98 99 100 97 93 72 68 70 79 81 66 59 55 63 89 98 99 100 94 94 90 91
100 100 100 100 100 100 100 100 98 95 98 100 100 100 100 100 100 100 100 99 96 87 85 81 85 89 83 77 91 94 75 73 70 66 66 82 100 98 100 98 98 100 98
98 100 100 100 100 100 100 100 100 100 100 100 100 100 100 100 100 100 94 89 85 90 84 84 88 83 81 82 83 84 87 89 83 78 82 84 85 84 90 100 99 100 100
93 97 100 100 100 100 100 100 100 100 100 100 100 98 99 95 90 98 91 86 86 86 87 85 84 85 88 98 95 93 90 87 86 88 86 98 99 100 100 100 97 100 100

GFSGL_925_rhum_102.txt.gz
RH
99 98 88 80 80 79 78 83 84 92 99 100 99 100 100 100 100 100 100 100 99 100 100 100 100 97 91 86 87 78 66 67 71 51 50 57 55 75 63 54 47 49 55
100 99 87 82 81 79 78 84 87 88 95 99 98 96 100 100 99 99 100 100 100 100 100 98 89 82 83 83 87 85 76 69 71 67 56 58 59 60 71 69 74 54 54
100 99 90 88 82 76 77 83 87 89 88 93 94 100 98 96 100 99 99 97 98 97 93 88 78 91 98 94 91 85 85 74 77 79 62 61 67 65 64 70 74 77 81
100 96 91 90 81 76 77 84 87 87 87 88 89 94 98 99 99 97 98 100 90 87 87 86 90 91 89 88 85 86 86 86 88 92 86 78 69 62 58 59 66 68 69
100 95 92 89 87 86 87 86 86 89 88 87 86 87 91 94 95 98 98 98 94 95 93 90 88 82 82 79 80 89 92 94 92 94 83 82 77 70 63 60 64 66 65
100 100 98 97 99 99 92 92 91 92 87 86 85 86 86 85 87 91 92 95 97 95 95 95 95 90 91 90 90 88 84 94 91 88 87 83 78 71 64 64 66 69 72
98 99 99 100 100 100 100 99 96 92 88 86 85 84 84 88 86 87 90 86 85 86 87 87 88 84 81 82 85 92 92 88 81 74 78 77 75 73 73 73 70 71 74
97 97 99 100 100 100 99 100 100 100 100 100 100 98 97 98 94 94 94 95 94 91 92 93 92 91 91 89 89 89 88 88 96 92 93 90 93 93 95 98 98 99 100
96 98 100 100 100 100 99 100 100 100 100 100 100 100 100 100 100 100 99 99 99 99 100 100 99 100 99 98 99 99 98 100 100 100 100 100 100 100 100 100 100 100 97
98 98 98 100 99 100 100 100 100 100 100 100 100 100 100 100 97 92 94 100 100 100 100 100 99 99 99 98 98 99 100 100 100 100 100 99 99 98 96 95 99 100 100
92 95 94 91 97 99 99 100 100 100 100 99 99 100 98 98 98 98 99 100 100 100 100 100 99 100 97 97 97 100 100 99 99 97 96 96 93 89 87 87 91 96 99
90 90 92 94 93 94 96 98 98 99 99 100 100 100 100 100 99 99 100 99 100 98 100 100 100 99 100 100 100 100 100 97 94 93 98 100 100 100 99 98 97 98 100
95 90 91 90 89 93 94 92 92 92 92 94 95 97 100 100 100 99 99 99 100 99 99 100 100 100 100 100 99 94 93 95 96 100 100 100 100 100 100 100 100 99 86
87 87 93 94 92 90 91 96 97 93 93 93 94 97 99 100 100 100 100 100 100 100 100 100 100 100 99 99 99 98 97 98 98 99 99 100 100 100 97 94 89 90 68
88 88 87 88 90 97 100 100 100 100 100 99 100 100 98 100 100 100 100 100 100 100 97 98 95 95 95 98 99 100 99 98 97 97 93 90 84 79 75 72 64 59 52
88 90 93 90 86 83 87 97 100 100 100 99 99 100 100 100 100 100 100 100 100 98 95 94 94 93 92 92 92 93 93 90 87 85 78 69 65 64 63 63 60 52 47
93 91 89 89 87 86 88 88 92 100 100 100 100 100 100 100 100 100 100 98 96 93 92 93 92 91 88 83 79 77 77 77 74 72 72 73 68 65 65 65 63 57 50
99 96 98 98 96 96 95 94 92 90 93 99 100 100 100 100 100 100 95 89 89 90 89 90 88 83 72 69 67 69 73 76 74 72 78 80 76 70 64 60 63 63 50
94 98 98 99 99 97 96 96 94 93 93 93 94 99 100 100 100 100 99 93 89 85 81 79 78 74 73 75 83 84 84 85 85 84 82 81 83 70 69 69 67 71 60
98 100 98 97 96 95 94 93 93 93 94 95 97 98 97 96 96 98 98 94 86 80 76 75 78 82 83 82 87 84 80 80 79 76 86 87 85 78 76 74 74 68 61
95 98 96 95 95 95 94 93 94 93 93 96 100 100 100 94 92 89 87 89 86 85 87 84 88 89 84 85 82 84 86 86 85 84 83 82 90 80 78 77 75 70 67
96 95 94 94 94 95 94 95 95 93 92 92 93 95 95 90 85 84 89 96 97 93 92 94 90 91 94 93 92 91 89 91 91 91 88 86 83 83 81 78 78 78 72
95 94 92 94 94 96 95 93 94 90 87 86 83 85 87 91 91 90 96 99 97 100 99 99 98 97 100 100 100 99 95 97 99 100 96 90 84 85 86 81 80 77 80
94 93 89 94 94 91 92 90 87 86 84 87 89 90 91 94 96 99 100 100 100 100 100 100 100 99 100 100 100 100 100 100 100 100 92 100 91 87 88 83 82 88 84
93 92 92 90 88 88 87 86 88 89 90 90 91 92 92 95 95 100 100 100 100 100 100 100 100 100 100 99 98 100 73 74 75 71 100 100 100 100 99 90 94 85 87
89 90 91 89 90 90 89 89 91 91 92 94 96 97 97 98 98 100 100 100 100 100 100 100 100 100 100 100 100 98 82 81 86 77 84 100 100 98 97 95 94 91 84

GFSGL_925_rhum_105.txt.gz
RH
92 91 81 74 68 67 68 68 77 83 81 86 92 99 99 99 100 100 100 100 100 100 100 100 100 100 100 96 92 90 86 86 81 64 57 49 57 59 59 60 65 76 79
96 94 83 76 70 70 68 70 76 85 82 85 89 99 100 99 98 99 99 100 100 100 100 100 100 100 100 100 100 98 95 88 81 76 66 61 52 55 62 63 72 74 69
98 95 86 78 75 71 67 73 82 83 82 82 84 90 91 96 99 99 99 100 99 100 100 100 100 100 100 100 98 95 92 86 86 84 83 75 63 59 63 60 66 68 71
98 96 90 85 80 74 64 75 85 85 83 82 82 88 94 90 90 88 90 91 91 92 93 97 98 94 92 88 84 84 84 83 86 82 76 73 68 66 65 70 72 69 72
100 98 95 91 82 70 68 76 83 85 87 86 88 90 93 94 90 88 89 92 88 84 89 86 85 80 76 82 83 84 80 84 86 84 81 81 79 73 69 71 68 62 60
100 100 98 91 87 84 80 82 84 85 82 86 85 88 88 84 84 88 85 84 85 83 80 81 80 80 81 81 79 76 75 78 80 83 84 81 79 76 74 76 73 70 72
100 100 100 100 100 100 96 90 88 87 85 87 87 86 89 95 91 89 90 89 92 89 89 90 90 86 88 90 84 81 84 82 82 88 92 90 89 86 93 91 90 96 97
100 100 100 100 99 100 100 100 100 100 100 98 100 98 98 99 97 91 88 90 91 97 99 99 100 100 100 99 99 99 99 100 99 99 100 100 100 98 97 98 100 99 100
100 100 100 100 100 100 100 100 100 100 100 100 100 100 100 100 98 97 96 97 100 100 100 100 100 100 100 100 97 100 100 100 100 100 100 100 100 100 99 99 100 100 99
99 98 100 100 100 100 100 100 100 98 98 100 100 100 99 100 99 95 95 100 100 100 100 100 97 97 92 91 92 95 100 100 100 100 100 99 97 95 91 92 96 99 100
100 99 100 100 100 100 100 97 96 97 97 96 96 97 97 99 100 100 100 100 99 98 97 99 98 98 96 94 93 100 100 99 99 97 95 90 83 78 78 80 88 95 98
98 99 97 95 97 97 95 97 98 99 99 100 100 100 100 100 100 100 100 100 100 98 100 100 100 100 100 99 99 100 99 96 92 92 95 96 93 90 89 86 84 88 94
94 92 99 100 91 89 97 96 93 92 92 94 95 98 100 99 99 94 96 98 99 99 100 100 100 100 100 99 100 98 92 93 96 99 100 100 100 99 100 98 94 89 69
85 89 91 97 98 99 98 100 100 98 94 95 95 97 99 99 100 99 100 99 99 98 97 97 98 97 96 97 95 93 96 95 96 97 98 98 96 92 92 88 84 83 66
84 86 86 86 86 94 100 100 100 100 100 99 100 100 98 100 100 100 98 98 95 96 94 95 95 95 96 95 93 93 93 91 92 94 92 86 82 76 69 67 60 54 46
86 86 93 89 87 83 87 97 100 100 100 100 98 98 98 100 100 100 99 95 94 96 94 91 94 95 94 93 92 88 86 84 81 80 75 68 64 63 63 63 59 49 42
91 90 88 87 86 86 86 87 93 99 100 100 100 100 100 100 99 97 98 94 94 88 92 91 90 86 79 76 74 73 75 74 74 74 73 74 70 64 63 64 64 56 47
99 98 97 96 95 93 94 94 92 91 92 99 100 99 100 100 100 100 97 87 86 86 84 83 80 75 70 70 70 73 76 77 75 73 78 79 75 70 65 58 62 66 49
94 97 97 97 96 96 92 91 91 90 91 94 98 96 100 99 98 96 95 89 82 75 71 73 73 71 71 76 82 82 83 84 83 83 81 80 82 71 70 69 70 64 60
94 97 98 96 95 93 93 91 90 91 91 92 92 95 97 94 93 93 92 87 79 74 71 71 74 78 79 79 83 80 77 77 76 74 82 85 84 76 74 73 73 67 60
93 92 97 92 92 93 96 94 95 94 92 91 95 98 98 92 86 84 82 84 82 82 83 80 84 85 80 81 81 83 85 85 83 82 82 82 84 78 74 73 71 67 64
90 89 90 90 91 92 94 95 95 94 94 92 90 84 86 83 79 80 85 92 92 88 88 90 86 88 93 91 90 89 88 89 92 92 86 82 80 78 77 74 74 74 70
90 90 88 91 93 95 96 97 96 93 86 81 78 80 82 86 86 86 91 93 94 98 98 98 97 95 98 100 98 96 96 98 99 100 99 90 80 88 83 78 74 76 76
88 88 86 88 88 91 92 87 82 78 77 82 84 84 85 89 91 92 96 98 99 100 100 100 100 100 100 100 100 100 100 93 100 100 100 99 90 87 88 81 77 80 77
81 78 79 79 84 84 81 80 82 83 83 85 85 86 86 87 88 94 98 100 100 100 100 100 100 100 100 100 100 100 64 60 79 69 99 100 94 98 91 91 87 84 80
77 79 80 81 82 81 82 81 83 83 85 86 87 89 89 88 91 95 97 99 100 99 100 100 100 100 100 100 100 79 62 61 66 62 64 100 96 92 93 97 89 85 82

GFSGL_925_rhum_108.txt.gz
RH
58 66 67 70 67 66 67 63 64 74 77 76 78 83 89 96 100 100 99 99 100 99 100 100 100 100 100 94 90 91 91 80 80 65 62 61 55 58 65 72 66 66 71
81 82 74 75 72 73 69 67 76 77 76 78 87 86 96 100 100 100 100 100 99 100 100 100 100 100 100 100 99 99 99 96 88 84 72 65 62 56 55 54 57 61 65
91 87 81 80 83 76 70 74 78 78 80 85 88 92 99 99 100 100 100 99 100 99 99 100 99 100 100 100 100 100 100 99 95 91 82 72 67 62 60 64 60 60 59
96 94 91 92 83 77 72 79 77 78 82 83 86 90 91 94 96 99 100 99 99 100 99 99 99 99 100 100 100 99 100 100 100 98 91 82 81 74 73 71 70 69 71
100 100 98 93 90 79 80 74 77 85 84 85 86 89 86 89 95 98 96 96 98 98 97 96 92 88 91 95 99 98 97 94 92 91 92 87 83 78 77 75 74 72 71
100 100 100 100 91 89 88 87 86 87 87 85 88 90 88 93 93 93 90 87 86 90 88 85 82 84 82 87 88 90 87 88 88 90 89 87 82 80 80 81 81 80 88
100 100 100 100 100 98 92 90 92 93 90 91 90 94 99 97 94 93 92 92 99 97 96 98 98 97 92 85 80 80 80 81 83 91 97 95 93 92 90 91 95 99 99
100 100 100 100 100 100 100 100 100 99 100 100 100 100 99 98 96 93 91 93 98 99 100 100 100 99 99 98 100 99 99 99 98 98 99 100 100 99 99 100 100 99 100
100 100 100 100 100 99 100 100 100 100 100 100 100 100 100 100 98 97 97 98 100 100 100 100 100 100 100 99 100 100 100 100 100 100 100 100 100 99 98 97 99 100 100
100 100 100 100 100 100 98 99 100 99 100 98 98 98 100 99 100 100 100 100 100 100 100 100 98 97 94 95 99 100 100 100 100 100 99 98 93 89 87 90 97 99 100
99 99 99 99 100 100 99 99 100 100 99 100 98 98 96 98 99 100 100 100 100 99 99 100 100 100 99 97 100 100 99 99 99 96 92 84 77 73 72 76 81 89 93
98 98 98 99 98 98 99 99 99 100 99 100 100 100 96 95 95 98 99 98 97 95 97 98 98 99 98 98 98 99 97 92 86 84 87 92 93 93 85 76 67 76 88
97 99 100 98 100 99 97 98 100 99 98 99 99 100 100 100 97 97 99 100 100 100 100 100 99 100 100 100 100 100 99 98 100 100 100 96 94 94 92 90 87 71 53
96 100 98 96 98 98 100 100 98 98 100 100 99 100 100 100 100 100 99 99 95 95 96 96 95 95 97 97 94 91 92 92 94 94 93 88 87 82 76 73 70 72 52
90 96 99 92 92 98 100 100 100 100 99 100 100 97 98 99 99 98 96 97 98 99 100 99 99 98 98 97 96 95 94 87 87 87 84 79 73 65 61 56 53 47 42
97 99 99 100 97 90 94 100 100 100 100 98 96 97 98 98 98 98 99 98 96 92 96 97 97 94 94 93 89 83 81 79 79 76 72 67 66 66 68 63 57 46 40
96 97 97 96 96 98 98 94 100 98 99 99 98 97 97 97 99 96 91 90 88 81 95 94 90 84 81 80 79 80 76 76 79 79 79 76 72 66 65 68 68 55 44
97 93 94 96 95 95 95 96 96 95 96 99 97 97 99 100 100 98 91 87 87 87 88 84 79 76 79 81 82 84 90 89 82 82 83 80 75 72 70 63 60 66 61
91 95 96 92 93 93 92 93 94 95 98 98 98 98 98 96 96 95 90 83 78 76 77 80 80 84 87 94 92 86 83 82 83 87 89 85 83 76 74 76 79 65 61
94 90 93 93 93 93 94 95 95 95 94 93 94 97 97 89 93 93 93 88 89 84 84 90 90 85 90 87 81 86 80 83 85 91 86 78 88 79 78 78 73 68 65
94 92 95 94 95 94 95 95 95 92 93 94 93 96 95 92 92 94 93 96 95 95 94 89 88 91 88 97 90 85 92 91 95 92 80 87 85 79 79 74 81 78 69
94 95 92 93 89 93 94 94 94 95 96 95 87 84 88 87 90 93 91 93 98 100 99 98 93 86 91 91 96 99 92 94 84 94 97 90 93 87 91 90 76 86 80
89 94 91 92 96 92 89 92 96 94 91 92 89 89 88 94 98 95 95 98 90 83 90 92 94 96 100 100 96 92 95 97 100 88 92 94 98 69 94 84 85 82 76
89 84 88 94 84 85 96 95 85 80 91 92 90 92 95 96 90 86 93 100 88 94 100 100 93 73 95 96 99 82 59 63 78 87 94 94 98 80 85 80 94 78 96
85 87 89 90 87 93 89 88 88 90 92 95 95 96 96 97 97 100 98 89 98 100 100 94 96 99 100 99 84 66 53 54 50 54 80 100 100 96 100 97 100 84 82
83 88 90 91 91 91 93 93 88 91 91 93 92 93 94 92 99 100 96 94 99 96 100 100 92 95 100 100 96 76 58 54 51 50 68 99 100 100 92 82 87 90 90

GFSGL_925_rhum_111.txt.gz
RH
72 77 74 74 66 74 70 74 73 75 74 79 85 91 90 99 93 100 100 100 100 100 100 98 95 94 88 89 89 84 76 69 77 73 72 67 64 64 67 72 69 68 66
94 92 81 72 66 76 73 68 70 77 77 75 77 82 90 100 99 100 100 100 100 100 100 100 100 100 100 100 97 97 94 86 90 88 82 78 75 72 62 61 68 67 66
100 94 95 88 73 69 74 72 76 77 80 79 78 81 78 100 100 100 99 99 100 99 99 99 99 100 100 100 100 100 100 100 99 98 94 90 82 76 73 62 59 57 57
100 100 100 99 96 84 80 80 82 80 80 82 76 78 82 95 100 100 100 100 99 100 99 97 100 99 100 100 100 100 100 100 100 100 99 90 82 79 77 72 70 70 67
100 100 100 100 100 90 84 84 84 82 80 78 87 91 88 94 100 100 100 100 100 100 100 100 100 100 100 99 100 100 100 100 100 100 100 97 94 89 83 78 78 75 75
100 100 100 98 100 100 94 94 83 81 84 89 88 92 99 100 100 100 100 99 98 95 95 95 90 87 86 84 91 99 99 100 100 98 98 96 93 88 82 80 77 81 91
100 100 100 99 100 100 100 100 99 96 94 97 98 97 98 97 97 99 100 96 96 100 99 98 100 99 98 100 97 100 100 100 99 99 98 96 94 91 89 89 91 92 97
100 100 100 100 100 100 99 100 100 100 100 100 100 100 99 100 100 99 99 100 100 100 100 100 100 100 99 100 99 100 100 100 97 94 94 98 100 99 100 100 100 100 100
99 100 100 100 100 100 100 99 100 99 99 100 100 100 100 99 100 100 100 100 100 100 100 100 100 100 100 100 100 100 100 100 100 100 100 100 100 98 97 99 99 99 100
99 100 100 99 98 99 100 98 98 100 97 100 98 100 100 100 100 100 100 100 100 100 100 100 99 100 99 99 100 100 100 100 99 100 99 95 94 95 94 96 100 99 99
98 98 98 98 99 100 100 98 98 100 94 96 97 99 98 99 100 100 100 99 98 100 100 100 100 100 100 100 100 100 98 98 98 96 93 82 76 73 73 74 82 87 91
100 99 97 96 97 98 97 99 99 99 98 97 95 98 97 97 98 99 99 98 96 93 100 100 99 99 99 98 98 98 100 97 95 94 98 99 92 83 69 54 62 76 87
97 96 97 96 96 97 96 97 97 98 100 99 100 98 97 97 97 98 98 98 97 96 97 98 98 96 100 99 97 99 100 96 96 100 100 94 91 90 85 71 50 43 41
100 97 92 96 98 96 98 98 98 97 97 98 98 99 97 98 98 98 100 97 97 96 96 96 96 96 97 98 96 94 92 89 89 92 89 79 72 70 67 64 69 45 48
99 100 98 91 95 100 100 100 100 99 96 98 99 97 97 98 99 98 97 99 100 98 95 94 94 94 94 92 91 88 86 86 87 83 75 66 62 57 51 48 43 41 42
100 100 98 99 90 92 98 100 100 99 98 97 97 99 100 99 99 99 96 96 96 95 96 99 99 98 94 83 81 81 78 77 74 67 65 67 69 67 62 52 42 39 37
100 96 100 99 99 99 92 93 99 99 100 100 100 99 99 100 99 99 99 95 86 79 87 88 89 91 96 94 90 86 84 82 78 76 73 67 63 65 67 63 54 47 44
94 98 92 96 96 96 97 97 90 94 99 100 98 97 99 100 98 93 83 75 83 83 90 95 96 88 82 80 85 88 86 80 80 80 77 73 74 78 68 63 62 61 57
89 96 97 97 98 97 92 90 90 92 95 96 94 96 94 100 100 93 74 79 89 93 93 93 91 93 97 93 89 87 87 85 83 84 85 83 77 76 72 70 67 63 63
95 95 96 97 96 95 96 93 87 89 93 94 96 99 90 80 89 93 92 92 95 95 93 93 96 94 89 90 86 83 87 88 89 83 83 81 82 79 78 77 76 68 70
98 92 84 87 95 96 97 98 83 84 92 95 98 98 88 86 93 95 97 99 100 95 88 88 89 93 94 90 88 88 89 93 88 87 88 93 83 88 76 75 81 84 77
93 93 89 98 87 89 96 96 96 95 88 94 95 95 89 90 90 92 92 95 97 98 95 85 88 94 92 95 95 88 81 77 89 94 95 92 87 89 90 83 76 76 81
87 95 78 85 97 82 75 93 97 95 95 94 88 82 87 92 95 98 97 88 83 81 87 92 94 94 93 88 84 88 86 80 80 86 94 92 89 90 90 94 94 90 94
92 95 95 96 93 88 94 94 95 97 96 93 90 95 93 86 83 90 96 93 88 94 92 84 75 86 90 79 66 50 47 62 65 77 90 94 84 84 78 89 85 77 94
83 90 94 96 95 97 97 93 94 89 90 94 97 98 100 100 95 90 86 93 100 96 90 88 89 92 89 89 82 56 45 44 46 61 96 99 97 98 100 97 92 91 89
92 88 90 83 91 94 94 97 98 98 98 99 98 99 96 98 97 91 88 87 96 100 99 96 87 97 100 100 88 59 46 43 44 52 94 94 96 99 88 82 87 86 88

GFSGL_925_rhum_114.txt.gz
RH
100 100 92 90 91 87 83 82 83 82 82 85 91 97 100 100 90 94 95 98 100 100 100 100 95 96 95 96 98 89 88 79 80 72 74 72 70 72 71 75 74 76 74
100 100 100 97 96 93 89 83 87 87 86 79 86 95 100 100 99 98 100 100 100 100 100 100 100 100 100 100 96 91 88 84 81 78 77 79 75 74 78 82 77 79 77
100 100 100 100 99 100 88 85 90 89 88 84 86 96 100 100 100 100 98 100 100 100 100 100 100 100 100 100 100 100 100 97 89 90 90 84 86 87 89 90 83 77 71
99 100 100 100 100 100 97 88 91 89 85 83 85 88 90 82 88 100 100 100 100 100 100 99 100 100 99 100 100 100 100 100 100 100 99 100 100 99 99 98 92 81 67
99 99 100 100 100 100 100 97 93 92 88 84 83 82 85 77 99 100 100 100 100 100 100 100 100 97 96 100 100 100 100 100 100 100 100 100 98 94 97 91 93 86 78
99 99 100 100 99 100 100 100 98 90 84 81 82 86 94 99 99 99 100 100 100 100 100 100 99 98 100 100 100 100 100 100 100 100 100 98 99 96 92 89 91 94 99
100 100 100 100 100 100 100 100 100 100 100 100 100 100 100 100 100 98 99 100 100 100 100 100 100 99 99 98 100 100 100 100 100 100 99 99 97 94 91 89 87 85 87
100 100 100 100 100 100 100 96 100 100 100 100 100 100 100 100 100 98 99 100 100 100 100 100 100 100 100 100 100 100 100 100 100 100 100 100 100 96 95 98 99 98 100
99 100 100 98 100 100 98 100 96 96 98 98 100 100 99 100 100 100 100 100 100 100 100 100 100 100 100 100 100 100 100 100 100 100 100 100 100 100 100 100 100 100 100
100 99 98 100 98 99 100 100 99 97 100 96 99 97 99 99 100 100 100 100 100 100 100 100 100 100 100 100 100 100 100 100 100 100 99 100 99 100 99 100 100 100 99
99 97 97 96 99 99 100 98 98 98 98 98 97 98 96 99 100 100 100 98 98 100 100 99 100 100 100 100 100 100 100 100 99 99 97 95 92 89 89 91 98 100 96
84 94 97 97 100 98 97 98 98 98 95 98 96 100 97 97 98 98 99 96 96 96 98 100 100 100 100 100 100 100 97 97 98 97 97 95 90 74 75 78 83 87 89
91 84 93 95 99 99 99 99 98 96 98 99 99 99 100 98 97 99 97 96 95 95 95 98 100 99 98 95 97 99 99 98 97 96 98 100 85 52 46 42 43 55 71
100 91 84 94 99 100 100 100 100 100 100 99 99 99 99 97 97 99 100 99 98 97 97 97 97 97 96 98 96 96 96 95 93 86 74 81 93 92 52 44 44 43 46
99 100 97 86 90 97 100 100 100 100 99 100 100 100 100 100 100 97 96 96 96 97 94 94 95 95 94 93 91 92 87 78 71 65 61 57 54 48 61 59 41 37 40
100 100 100 100 88 85 91 98 100 100 100 99 96 97 100 99 100 99 98 97 96 96 94 97 97 96 96 96 94 88 78 72 71 70 68 64 60 50 44 39 37 38 44
100 100 96 96 100 98 87 92 98 99 100 100 100 99 98 100 99 100 99 95 95 90 93 97 98 96 95 94 95 93 92 85 73 67 67 69 68 62 53 51 48 46 50
95 97 99 100 97 98 94 97 91 92 97 98 99 99 100 100 99 98 88 75 84 89 98 100 99 92 93 91 86 85 84 80 76 74 73 71 59 59 63 62 58 58 61
95 97 97 95 98 94 88 91 92 93 97 97 92 92 98 100 86 78 76 86 98 100 96 97 95 92 90 88 88 85 84 86 85 81 78 76 74 73 69 65 65 65 63
96 87 91 92 97 98 87 80 89 94 95 97 96 97 95 85 88 93 93 93 93 96 96 94 94 96 92 90 91 89 86 82 84 84 83 81 78 77 76 71 69 67 66
95 95 90 90 92 96 96 80 85 92 94 95 96 96 94 91 96 96 96 92 91 92 92 95 97 92 88 89 86 88 88 88 89 93 88 88 84 77 78 82 80 76 68
94 84 94 92 79 90 98 97 86 92 94 94 96 94 86 83 88 90 95 98 99 95 90 87 87 92 96 93 88 81 81 92 94 96 91 90 93 89 81 77 75 80 72
94 93 97 93 95 82 92 97 96 94 92 86 81 86 88 88 91 94 92 88 85 85 94 94 91 89 87 79 73 80 77 74 88 97 95 86 89 92 94 90 89 90 83
88 93 94 96 97 98 94 95 96 97 95 96 94 90 86 85 88 94 94 89 88 90 89 78 75 82 74 66 54 46 47 64 69 83 94 89 77 87 85 90 81 88 91
87 88 90 94 94 96 98 99 96 95 96 97 97 97 96 95 91 91 94 95 98 94 90 83 88 88 91 85 74 50 45 44 49 77 94 94 93 94 95 94 92 90 92
92 91 88 85 95 94 95 95 96 98 99 100 100 99 98 96 95 92 88 92 96 98 96 93 90 92 93 89 75 56 48 45 46 57 93 96 95 96 90 85 90 89 87

GFSGL_925_rhum_117.txt.gz
RH
100 100 100 100 100 100 100 95 90 96 96 96 98 100 99 100 96 96 90 82 93 100 100 100 100 99 100 100 100 97 92 87 85 79 76 72 71 73 74 74 75 78 81
100 100 100 100 100 99 100 98 99 99 96 96 99 100 100 100 100 99 93 91 94 100 99 100 100 100 100 100 100 100 100 95 92 86 78 82 80 70 70 77 81 84 84
99 100 100 100 100 100 100 100 100 100 99 100 100 100 100 100 99 100 92 87 93 97 99 100 100 100 100 100 100 100 100 100 97 94 86 83 84 79 91 86 89 86 82
98 99 100 100 100 100 100 99 99 100 100 100 100 100 99 100 99 100 98 99 100 99 100 100 100 100 100 100 100 100 100 100 100 100 100 98 94 94 92 95 99 90 95
99 99 100 100 100 100 100 100 100 100 100 100 100 100 100 100 99 100 100 100 100 100 100 100 100 100 99 100 99 100 100 100 100 100 99 100 99 99 99 99 100 100 100
97 99 100 100 100 100 99 99 100 100 100 100 100 100 100 100 100 97 88 100 100 100 100 100 100 100 100 100 100 100 100 100 100 100 100 98 100 99 96 100 100 100 100
99 99 100 100 100 100 100 99 97 98 100 100 100 100 100 100 100 100 100 100 100 100 100 100 100 99 100 100 100 100 100 100 100 99 99 99 98 96 96 98 99 98 97
100 100 100 100 100 100 100 100 100 99 99 99 100 100 100 100 100 100 100 100 100 100 100 99 100 100 100 100 100 100 100 100 100 100 100 100 99 98 99 96 93 95 100
100 100 100 100 99 100 100 100 100 100 99 97 98 97 100 99 100 100 100 100 100 100 100 100 100 100 100 100 100 100 100 100 100 100 100 100 100 100 99 100 100 100 100
100 100 100 99 100 100 98 98 100 100 100 97 97 99 99 98 100 99 100 100 99 100 100 100 100 100 100 100 100 100 100 100 100 100 100 100 100 100 100 100 100 100 99
93 93 93 95 99 100 99 98 97 97 98 99 96 97 98 98 100 100 100 97 96 96 100 99 99 100 100 100 100 100 99 100 100 100 99 98 97 97 99 99 100 100 99
77 81 90 98 100 99 97 97 98 96 95 99 99 100 100 97 98 98 100 99 98 95 98 98 96 97 100 100 100 100 99 98 98 96 94 97 96 97 97 96 98 98 98
99 84 82 89 100 100 100 100 100 98 100 99 98 98 100 98 97 97 98 97 97 99 98 97 97 99 97 94 98 100 98 100 99 97 98 96 94 95 97 96 97 97 96
100 100 89 89 95 100 100 100 100 100 100 100 100 98 98 98 97 97 97 97 97 96 96 97 97 97 97 97 97 96 97 98 97 96 97 96 93 60 45 42 42 45 51
100 100 100 90 84 92 96 100 100 99 99 100 100 100 99 99 98 98 96 96 96 97 96 96 96 96 96 96 96 96 96 96 95 96 89 82 75 55 46 36 33 36 51
98 100 100 100 97 85 88 90 97 100 100 99 98 97 97 99 100 100 98 96 96 96 94 96 96 96 96 96 96 96 96 93 83 66 58 54 53 46 41 39 36 39 42
100 100 100 99 97 91 90 89 90 88 92 100 100 100 100 100 100 100 100 99 94 85 96 98 97 96 96 96 96 95 95 96 96 94 85 67 54 51 48 50 47 47 53
91 95 97 100 98 94 92 91 92 95 95 95 94 96 100 100 100 99 86 71 84 88 94 99 100 96 94 93 91 89 85 82 78 74 64 64 65 59 60 68 64 67 70
94 91 95 96 97 90 80 84 93 94 95 95 91 91 92 95 82 82 81 88 96 100 99 97 94 94 94 88 86 85 83 82 79 75 75 73 67 61 65 66 65 65 65
87 93 90 93 95 92 78 82 92 92 92 92 95 98 90 80 88 94 93 93 95 96 95 97 97 95 96 93 87 82 84 85 84 83 80 78 75 70 69 68 64 62 66
91 85 94 80 88 98 92 84 89 89 93 95 98 95 88 88 95 95 94 92 94 96 97 96 94 91 91 89 89 86 87 92 93 91 90 80 75 77 82 79 74 67 65
97 96 94 92 78 94 98 95 96 93 92 91 92 89 84 81 83 87 92 96 96 92 89 87 88 92 93 89 84 80 91 93 95 92 93 93 87 80 76 74 75 70 72
88 90 93 97 96 93 94 95 95 94 90 84 83 81 82 86 89 89 89 88 82 81 91 94 86 79 68 55 60 74 74 81 95 96 90 87 92 94 92 87 88 82 78
86 89 91 95 95 98 99 98 97 96 96 96 93 90 87 87 88 94 95 94 88 84 84 79 78 78 79 71 52 45 45 57 73 89 94 86 79 88 92 86 80 86 90
91 89 84 89 93 96 97 98 96 97 96 97 98 97 97 96 92 90 92 97 96 92 88 89 92 93 88 81 64 52 45 44 53 86 94 94 91 96 94 93 90 88 88
90 79 82 95 93 94 95 95 97 98 97 96 98 100 100 99 97 95 89 98 98 94 96 95 92 89 86 83 74 57 48 44 46 60 90 96 93 91 90 86 89 92 90

GFSGL_925_rhum_120.txt.gz
RH
99 100 99 99 99 99 100 96 100 100 94 91 100 100 100 100 100 100 100 100 98 89 80 93 93 100 100 100 100 97 100 96 92 99 95 85 90 88 76 77 68 74 72
99 100 100 100 100 100 100 100 97 97 100 100 100 99 100 100 100 100 100 100 96 92 93 96 98 100 100 100 100 100 100 97 91 95 90 94 92 90 85 79 79 77 78
99 100 100 100 100 100 100 100 100 96 98 100 100 100 100 100 100 100 100 100 95 88 85 98 98 100 100 100 100 100 100 100 96 94 95 88 85 86 90 88 83 81 81
97 99 100 100 100 100 100 100 100 100 100 97 99 100 100 100 100 100 100 100 95 90 90 91 97 100 100 99 100 100 100 100 100 100 99 98 92 92 88 93 100 100 100
97 98 99 100 100 100 100 100 100 100 100 99 98 99 100 100 100 100 99 100 100 99 95 94 100 99 99 99 100 100 100 100 100 100 99 99 99 99 99 98 100 100 100
99 99 100 99 99 100 100 100 100 98 97 100 100 100 100 100 100 100 99 100 100 100 100 100 100 99 99 100 100 100 97 100 100 99 98 98 98 99 100 100 100 100 100
100 100 100 100 100 100 100 100 100 100 100 96 96 99 99 98 99 100 100 100 100 100 100 100 100 99 100 100 100 100 100 100 100 98 99 99 99 96 96 100 100 100 100
100 100 100 100 100 100 100 100 100 100 100 100 100 99 97 99 98 100 100 100 100 100 100 100 100 99 100 100 100 100 100 100 100 100 100 99 97 96 100 95 98 99 100
100 100 100 100 100 100 100 100 100 100 100 100 100 99 100 99 98 100 99 100 100 100 100 100 100 100 100 100 100 100 100 100 100 100 99 99 100 100 100 100 100 100 100
97 100 100 100 100 100 100 100 100 100 100 100 100 100 100 98 99 99 100 98 98 100 100 100 100 100 100 100 100 99 100 100 100 100 100 100 100 100 100 100 100 100 99
92 92 100 100 100 100 100 100 99 99 99 100 100 99 97 99 98 98 99 98 95 99 99 99 100 98 99 100 100 100 100 100 100 100 100 100 100 100 100 100 100 100 99
100 90 95 100 100 100 100 100 100 100 100 100 98 99 99 97 97 96 97 96 98 94 99 100 100 100 100 100 99 98 100 100 100 100 100 100 100 100 100 100 100 99 99
97 100 89 91 97 100 100 99 98 100 100 98 98 99 100 100 97 97 97 96 96 96 97 98 98 97 98 98 100 99 98 96 97 96 97 98 100 100 100 100 100 99 99
96 99 100 92 89 95 100 100 100 97 97 98 97 98 99 100 100 98 96 97 96 95 96 97 97 97 97 97 96 96 97 97 96 96 96 96 96 95 95 96 97 97 93
94 99 100 100 88 84 94 100 100 99 100 100 100 100 99 98 99 100 100 100 98 99 96 95 95 96 96 96 96 96 96 96 96 96 96 96 86 49 49 46 50 46 65
98 100 100 100 94 91 85 80 93 100 100 100 100 97 95 99 100 100 100 100 95 93 89 98 98 97 97 96 96 96 96 95 96 95 95 94 90 70 44 35 37 68 85
100 100 100 98 95 93 93 95 93 80 85 100 100 100 100 100 100 100 100 91 84 79 94 100 100 98 96 96 95 96 96 96 96 95 95 95 93 69 63 77 75 70 86
89 92 98 100 96 80 83 95 95 96 94 90 90 99 100 100 100 89 76 67 75 84 96 100 100 95 95 95 93 94 95 95 95 95 95 95 91 76 80 86 89 89 88
86 93 89 89 92 85 81 88 88 88 89 91 84 81 86 91 87 83 80 86 96 99 97 97 96 92 89 88 88 86 82 79 77 74 71 70 70 67 72 71 70 68 68
91 94 91 80 84 94 87 86 88 87 88 91 92 90 80 74 86 92 93 93 94 96 96 96 95 94 91 88 84 85 85 84 81 79 77 72 68 66 65 64 62 62 67
93 92 89 85 86 99 97 95 95 91 92 90 90 87 81 80 92 95 96 95 93 95 97 97 92 88 86 88 87 85 88 90 92 87 78 77 77 78 75 70 65 62 62
85 91 93 95 95 95 99 99 97 92 86 85 86 84 82 82 84 84 84 87 97 96 90 84 79 78 84 85 78 88 92 92 91 94 91 83 78 75 71 68 66 69 66
83 85 89 92 95 98 98 98 98 97 95 92 89 86 85 86 89 90 89 87 84 81 88 89 74 62 55 48 53 73 76 94 96 92 90 94 92 90 87 84 79 76 75
89 86 82 86 92 94 98 100 98 95 95 96 98 97 95 93 92 95 97 97 90 84 90 91 88 84 78 63 50 46 49 63 84 95 93 83 85 90 89 84 83 87 89
90 83 81 94 95 98 97 97 96 96 100 100 100 100 98 97 97 96 97 100 98 93 91 95 93 87 82 72 57 49 44 44 67 90 94 95 94 95 93 92 91 91 90
86 90 87 96 88 86 94 96 99 99 97 96 97 100 100 100 100 98 94 99 100 100 100 98 95 91 90 83 70 60 50 49 55 76 94 96 94 90 89 88 91 93 92